Location: Unspecified
(0.0000°N, 0.0000°E)
Time: 10:28:43
(UTC-05:00)

CZ-3 Stage 3 - Visible Passes

Search period start: 22 May 2017 00:00
Search period end: 01 June 2017 00:00
Orbit: 404 x 34794 km, 30.8° (Epoch: 20 May)

Date Brightness Start Highest point End Pass type
(mag) Time Alt. Az. Time Alt. Az. Time Alt. Az.
22 May 9.8 17:34:05 10° NW 19:14:57 26° WNW 22:27:57 10° WNW visible
23 May 6.9 13:21:47 10° NW 17:42:35 65° NNW 22:55:37 10° SSE visible
24 May 6.8 09:37:38 10° WNW 17:45:00 64° E 19:13:29 10° ESE visible
25 May 9.8 17:24:30 10° NW 19:04:55 26° WNW 22:17:36 10° WNW visible
26 May 6.9 13:12:45 10° NW 17:30:44 66° NNW 22:46:22 10° SSE visible
27 May 6.7 09:28:35 10° WNW 17:34:24 64° E 19:04:14 10° ESE visible
28 May 9.9 17:14:55 10° NW 18:54:50 26° WNW 22:07:10 10° WNW visible
29 May 6.9 13:03:42 10° NW 17:18:46 67° NNW 22:37:08 10° SSE visible
30 May 6.7 09:19:31 10° WNW 17:23:42 65° E 18:54:58 10° ESE visible
31 May 9.9 17:05:18 10° NW 18:44:42 26° WNW 21:56:40 10° WNW visible
